[[{"header":{"parameterUnit":"m.s-1","parameterCategory":1,"la1":30.2991,"la2":30.254,"lo1":-89.0895,"lo2":-89.0444,"dy":0.0017,"dx":0.0017,"nx":28,"ny":28,"refTime":"2025-03-11T21:00:00:Z","depth":0,"parameterNumber":2,"parameterNumberName":"U-component_of_WINDS"},"data":[0,0,0,0,0,0,0,0,0,0,0,0,0,0,0,0,0,0,0,0,0,0,0,0,0,0,0,0,0,0,0,0,0,0,0,0,0,0,0,0,0,0,0,0,0,0,0,0,0,0,0,0,0,0,0,0,0,0,3.7508,3.7511,0,3.7748,3.7751,3.7754,3.7767,3.7764,3.7762,3.7759,3.8011,3.802,3.8029,0,0,0,0,0,0,0,0,0,0,0,0,0,3.7066,3.7074,3.7508,3.7511,3.7514,3.7748,3.7751,3.7754,3.7768,3.7764,3.7761,3.7758,3.8007,3.8018,3.803,0,0,0,0,0,0,0,0,0,0,0,0,0,3.7277,3.7077,3.7508,3.7549,3.7555,3.7747,3.7751,3.7755,3.7768,3.7764,3.776,3.7756,3.8004,3.8017,3.8031,3.82,0,0,3.8074,3.808,0,0,0,0,0,0,0,0,3.7265,3.7294,3.754,3.7546,3.7553,3.7723,3.7687,3.7905,3.777,3.7688,3.7759,3.7754,3.7919,3.7939,3.7994,3.8212,3.8223,3.8075,3.8083,3.8089,3.8093,0,0,0,0,0,0,0,3.7251,3.7283,3.7603,3.7543,3.7552,3.7557,3.7582,3.7729,3.7824,3.7694,3.7696,3.7724,3.7922,3.798,3.8,3.8227,3.8074,3.8087,3.8095,3.8101,3.8594,3.8599,0,0,0,0,0,0,3.7227,3.7271,3.7596,3.7611,3.7396,3.7568,3.7597,3.7673,3.7822,3.7841,3.7727,3.7724,3.7959,3.7983,3.8009,3.8214,3.8089,3.8102,3.811,3.8589,3.8595,3.86,0,0,0,0,0,0,3.7218,3.7256,3.7586,3.7441,3.7484,3.758,3.7666,3.768,3.7738,3.7847,3.7864,3.7769,3.7956,3.7989,3.8152,3.8223,3.8108,3.8121,3.8584,3.8591,3.8598,3.8629,0,0,0,0,0,0,3.7205,3.7253,3.7317,3.7443,3.7491,3.7724,3.7671,3.7688,3.7762,3.7759,3.7891,3.7909,3.7955,3.8131,3.8165,3.8241,3.8132,3.8578,3.8587,3.8595,3.8621,3.8636,3.8648,0,0,0,0,0,3.7189,3.7318,3.732,3.7359,3.7573,3.7728,3.7756,3.7805,3.7768,3.7833,3.7903,3.7905,3.821,3.8147,3.8187,3.8267,3.8573,3.8584,3.8595,3.8616,3.8633,3.8648,0,0,0,0,0,0,3.72,3.7335,3.7339,3.7512,3.7608,3.773,3.7814,3.7823,3.7933,3.7926,3.7985,3.8015,3.8175,3.8238,3.8165,3.8438,3.8388,3.8407,3.839,3.8408,3.8421,3.8401,3.8144,0,0,0,0,0,3.7222,3.7335,3.7447,3.7589,3.7637,3.7717,3.7786,3.7816,3.7919,3.796,3.8042,3.8143,3.8261,3.8339,3.8454,3.8631,3.866,3.8706,3.8719,3.873,3.8745,3.8841,3.8863,3.8635,3.8635,3.8635,0,0,3.727,3.7357,3.7425,3.7593,3.7671,3.7787,3.7751,3.7876,3.7963,3.798,3.8137,3.8201,3.8318,3.8487,3.8566,3.8544,3.8814,3.8743,3.8751,3.8761,3.8855,3.8876,3.8895,3.8643,3.8641,3.864,0,0,3.7415,3.7493,3.7618,3.7696,3.7814,3.7867,3.7897,3.8018,3.8059,3.8218,3.8232,3.8338,3.8542,3.8623,3.8692,3.8867,3.8872,3.8904,3.8972,3.9066,3.9083,3.9099,3.916,3.9181,3.8919,3.8919,3.8919,0,3.7459,3.7633,3.7682,3.7806,3.7879,3.7898,3.8025,3.81,3.825,3.8301,3.8274,3.8528,3.8609,3.8797,3.8839,3.8895,3.8931,3.8888,3.9077,3.9093,3.9109,3.9167,3.919,3.8922,3.8921,3.8921,3.8921,0,3.768,3.7801,3.7888,3.803,3.8113,3.8239,3.8308,3.8387,3.841,3.8465,3.8626,3.8723,3.8857,3.8905,3.8929,3.9097,3.9079,3.9064,3.9015,3.9133,3.9188,3.9211,3.8926,3.8925,3.8924,3.8923,0,0,3.7838,3.8004,3.8035,3.8099,3.823,3.8325,3.8451,3.858,3.8646,3.875,3.8857,3.9028,3.9014,3.9092,3.9126,3.9209,3.9338,3.9184,3.9187,3.9207,3.9527,3.9535,3.956,3.9344,3.9348,3.9352,3.9516,0,3.7995,3.8218,3.8265,3.8458,3.8569,3.8588,3.8699,3.8791,3.8847,3.8951,3.9013,3.9132,3.9107,3.9153,3.9236,3.9305,3.9403,3.9294,3.9443,3.9448,3.941,3.9589,3.9599,3.9749,3.9538,3.9542,3.9545,0,3.8208,3.8313,3.8516,3.8631,3.8679,3.8777,3.8898,3.8997,3.9103,3.9138,3.9224,3.9249,3.9382,3.9328,3.9511,3.9436,3.9501,3.9544,3.9551,3.9565,3.9501,3.9605,3.9798,3.9819,3.958,3.9577,3.9574,0,3.8299,3.8493,3.8638,3.8692,3.8831,3.8898,3.896,3.9061,3.9135,3.9243,3.9291,3.9414,3.948,3.9575,3.9632,3.9588,3.9811,3.9762,3.9843,3.9841,3.9887,3.9883,4.009,3.9933,3.9933,3.9932,3.9932,0,3.8469,3.8591,3.868,3.8769,3.8907,3.8962,3.9098,3.9159,3.9249,3.9351,3.9378,3.9473,3.9545,3.9651,3.9698,3.9841,3.9872,3.9904,3.9914,3.99,3.9896,3.9941,3.9931,3.9938,3.9937,3.9936,3.9935,0,3.8593,3.8657,3.8817,3.8934,3.8966,3.9062,3.9163,3.9251,3.9307,3.9436,3.947,3.9558,3.9684,3.9751,3.991,3.9941,4.0102,4.0108,4.0065,4.0068,4.0144,4.0135,4.0386,4.0421,4.0243,4.0244,4.0246,0,3.8695,3.8789,3.8915,3.8984,3.9046,3.9158,3.9233,3.9291,3.9368,3.9495,3.9568,3.9695,3.9799,3.9999,4.0079,4.02,4.0208,4.0287,4.0226,4.0208,4.0206,4.0198,4.0207,4.0297,4.0299,4.03,4.0301,0,3.8868,3.8895,3.9001,3.9118,3.9206,3.9302,3.9397,3.9453,3.9527,3.9613,3.974,3.9821,3.9981,4.0106,4.0234,4.0298,4.0312,4.032,4.0345,4.0329,4.0299,4.0314,4.0091,4.0313,4.0312,4.0311,4.0311,4.031,3.8983,3.9067,3.9168,3.9285,3.9362,3.9449,3.9537,3.9603,3.9709,3.9842,3.9872,4.0006,4.011,4.0281,4.0349,4.0456,4.044,4.0477,4.0486,4.0493,4.0494,4.0284,4.048,4.048,4.048,4.0479,4.0479,0,3.9155,3.9221,3.9328,3.9458,3.955,3.9554,3.9659,3.9736,3.9853,3.9948,4.0049,4.0195,4.0317,4.0405,4.0529,4.0597,4.0607,4.0628,4.0622,4.0636,4.0503,4.0467,4.0618,4.0618,4.0618,4.0618,4.0618,4.0618,3.9256,3.9396,3.9435,3.9615,3.9681,3.981,3.987,3.9951,4.0026,4.0187,4.0287,4.0343,4.0436,4.0566,4.0678,4.0701,4.0745,4.0765,4.0788,4.0661,4.0646,4.0632,4.0599,4.0774,4.0775,4.0912,4.0914,4.0915]},{"header":{"parameterUnit":"m.s-1","parameterCategory":1,"la1":30.2991,"la2":30.254,"lo1":-89.0895,"lo2":-89.0444,"dy":0.0017,"dx":0.0017,"nx":28,"ny":28,"refTime":"2025-03-11T21:00:00:Z","depth":0,"parameterNumber":3,"parameterNumberName":"V-component_of_WINDS"},"data":[0,0,0,0,0,0,0,0,0,0,0,0,0,0,0,0,0,0,0,0,0,0,0,0,0,0,0,0,0,0,0,0,0,0,0,0,0,0,0,0,0,0,0,0,0,0,0,0,0,0,0,0,0,0,0,0,0,0,0.884,0.884,0,0.8843,0.8843,0.8843,0.8809,0.8808,0.8807,0.8806,0.881,0.8811,0.8812,0,0,0,0,0,0,0,0,0,0,0,0,0,0.8809,0.8809,0.884,0.884,0.884,0.8843,0.8843,0.8843,0.8809,0.8808,0.8807,0.8805,0.881,0.8811,0.8812,0,0,0,0,0,0,0,0,0,0,0,0,0,0.8818,0.881,0.884,0.8824,0.8822,0.8843,0.8843,0.8843,0.8809,0.8808,0.8806,0.8805,0.881,0.8811,0.8813,0.885,0,0,0.8817,0.8818,0,0,0,0,0,0,0,0,0.8817,0.8819,0.8826,0.8825,0.8823,0.8824,0.8833,0.8845,0.8809,0.8814,0.8806,0.8804,0.8816,0.8817,0.882,0.885,0.885,0.8817,0.8818,0.8819,0.8819,0,0,0,0,0,0,0,0.8817,0.8819,0.8841,0.8826,0.8824,0.8817,0.8816,0.8835,0.8823,0.8814,0.8811,0.8812,0.8815,0.8819,0.882,0.885,0.8817,0.8818,0.8819,0.882,0.891,0.8911,0,0,0,0,0,0,0.8818,0.8818,0.8841,0.8841,0.8817,0.8818,0.8818,0.8825,0.8823,0.8821,0.8813,0.881,0.8817,0.8819,0.882,0.8863,0.8819,0.882,0.8821,0.8908,0.891,0.8911,0,0,0,0,0,0,0.8818,0.882,0.8841,0.8829,0.8831,0.882,0.8828,0.8826,0.883,0.8822,0.882,0.8819,0.8816,0.8818,0.8842,0.8863,0.8821,0.8822,0.8906,0.8909,0.8911,0.895,0,0,0,0,0,0,0.8817,0.882,0.8834,0.883,0.8832,0.8863,0.883,0.8827,0.8832,0.8829,0.8827,0.8826,0.8815,0.884,0.8844,0.8864,0.8823,0.8904,0.8907,0.891,0.8947,0.8953,0.8959,0,0,0,0,0,0.8816,0.8845,0.8835,0.8838,0.8848,0.8864,0.8865,0.8852,0.8834,0.8848,0.8843,0.8826,0.886,0.8843,0.8847,0.8868,0.8903,0.8906,0.891,0.8944,0.8952,0.8958,0,0,0,0,0,0,0.8853,0.8844,0.8833,0.8862,0.8864,0.8858,0.8875,0.8861,0.8868,0.8865,0.8848,0.8848,0.8875,0.8874,0.8855,0.8904,0.8879,0.8883,0.8903,0.8911,0.8917,0.8916,0.8824,0,0,0,0,0,0.8864,0.8877,0.8869,0.8895,0.8897,0.8886,0.8892,0.8881,0.8883,0.8884,0.8881,0.8884,0.8895,0.8903,0.8913,0.8946,0.8946,0.8963,0.8969,0.8974,0.8978,0.8995,0.9003,0.8923,0.8922,0.8922,0,0,0.8889,0.8885,0.8894,0.8903,0.8903,0.8917,0.8887,0.8903,0.8913,0.8887,0.8909,0.8907,0.8909,0.8938,0.895,0.8938,0.9,0.8978,0.8982,0.8983,0.8999,0.9007,0.9014,0.8925,0.8924,0.8924,0,0,0.8939,0.8938,0.896,0.8961,0.8961,0.8954,0.8959,0.8955,0.8953,0.8975,0.8955,0.8967,0.8987,0.8989,0.8993,0.9045,0.903,0.9049,0.908,0.9097,0.9104,0.9109,0.9128,0.9134,0.9052,0.9053,0.9053,0,0.8969,0.8989,0.8973,0.899,0.8995,0.8971,0.8993,0.8995,0.8999,0.9003,0.8988,0.9012,0.9012,0.9041,0.9054,0.9058,0.9063,0.9049,0.9104,0.9109,0.9114,0.9132,0.9139,0.9055,0.9055,0.9054,0.9054,0,0.9026,0.9039,0.9057,0.9061,0.9067,0.9087,0.9075,0.9083,0.9072,0.9066,0.9089,0.9088,0.9097,0.9103,0.9093,0.9131,0.9123,0.9107,0.9081,0.9124,0.9141,0.9147,0.9058,0.9057,0.9057,0.9056,0,0,0.91,0.9094,0.9101,0.9103,0.9101,0.9112,0.9131,0.9139,0.9147,0.9151,0.9166,0.9184,0.9168,0.9172,0.9162,0.9177,0.9218,0.9159,0.9159,0.917,0.926,0.9273,0.928,0.9208,0.9209,0.921,0.926,0,0.9149,0.918,0.9166,0.9199,0.9212,0.9189,0.9206,0.9207,0.9202,0.9213,0.9207,0.922,0.9199,0.9201,0.9215,0.921,0.9236,0.9207,0.9223,0.9224,0.9223,0.9289,0.9302,0.9349,0.9266,0.9267,0.9268,0,0.921,0.9216,0.925,0.9246,0.9251,0.9266,0.9272,0.9283,0.9284,0.9279,0.9284,0.927,0.9289,0.9264,0.9289,0.927,0.9275,0.9274,0.9276,0.9277,0.9249,0.9292,0.9363,0.937,0.9278,0.9277,0.9276,0,0.9261,0.9277,0.9299,0.9301,0.9298,0.9309,0.9308,0.9308,0.9314,0.932,0.9323,0.9332,0.9337,0.9344,0.9333,0.9315,0.936,0.9334,0.9357,0.9357,0.9367,0.9367,0.9441,0.9371,0.9371,0.9371,0.9371,0,0.9317,0.9339,0.9322,0.9336,0.9359,0.9344,0.9368,0.9365,0.9365,0.9378,0.9359,0.9372,0.9357,0.9368,0.936,0.9382,0.9385,0.9382,0.9379,0.9383,0.9384,0.9387,0.9383,0.9373,0.9373,0.9372,0.9372,0,0.9378,0.9367,0.939,0.9385,0.9384,0.9402,0.9397,0.941,0.9404,0.942,0.9424,0.9414,0.9426,0.9416,0.9429,0.9423,0.9453,0.9446,0.9452,0.945,0.9474,0.9472,0.9553,0.9563,0.9487,0.9488,0.9488,0,0.9414,0.943,0.9427,0.9434,0.9434,0.9446,0.9451,0.9437,0.9444,0.9447,0.9459,0.947,0.9478,0.9499,0.9493,0.9503,0.9496,0.9524,0.9497,0.9501,0.9496,0.9495,0.9497,0.9529,0.953,0.9531,0.9531,0,0.948,0.9474,0.9483,0.949,0.9497,0.9502,0.9506,0.9513,0.9498,0.9507,0.9519,0.9525,0.9538,0.9549,0.9556,0.9556,0.9542,0.954,0.9545,0.955,0.9553,0.9551,0.9467,0.9538,0.9537,0.9537,0.9536,0.9536,0.9529,0.9542,0.9542,0.9552,0.9553,0.9557,0.9569,0.9564,0.9574,0.9582,0.9574,0.9588,0.959,0.9598,0.96,0.9611,0.96,0.9608,0.9611,0.9613,0.9616,0.9551,0.9613,0.9612,0.9612,0.9612,0.9612,0,0.9594,0.9593,0.9602,0.9608,0.9616,0.9601,0.9604,0.9612,0.9626,0.9628,0.9636,0.965,0.9661,0.9656,0.9665,0.9676,0.9669,0.9679,0.9678,0.9678,0.9626,0.962,0.9684,0.9684,0.9684,0.9684,0.9684,0.9684,0.9629,0.965,0.9644,0.9666,0.9664,0.9678,0.9682,0.9685,0.9687,0.9703,0.9712,0.9708,0.9708,0.9717,0.9726,0.9725,0.9729,0.9741,0.9737,0.9689,0.9682,0.9675,0.9669,0.9742,0.9742,0.9788,0.9788,0.9789]}]]